CW5398 Weather Reports


Display with metric or nautical units.
time (UTC)temp
F
wind
direction
speed
MPH
gust
MPH
rain 1hr
in
rain 24hr
in
rain mn
in
humidity
%
barometer
mb
20260502194017 68 293 3.0 8.0 0.00 0.00 0.00 67 1017.0
20260502193016 68 270 2.0 9.0 0.00 0.00 0.00 69 1017.0
20260502192037 68 293 2.0 7.0 0.00 0.00 0.00 69 1017.1
20260502191036 68 293 2.0 9.0 0.00 0.00 0.00 73 1017.1
20260502190016 68 293 1.0 7.0 0.00 0.00 0.00 74 1017.1
20260502185016 67 293 2.0 9.0 0.00 0.00 0.00 71 1017.1
20260502184036 67 270 1.0 3.0 0.00 0.00 0.00 71 1017.2
20260502183016 66 270 1.0 5.0 0.00 0.00 0.00 73 1017.2
20260502182016 67 293 2.0 7.0 0.00 0.00 0.00 71 1017.4
20260502181056 68 293 2.0 8.0 0.00 0.00 0.00 70 1017.5
20260502164016 59 270 0.0 3.0 0.00 0.00 0.00 92 1017.6
20260502163015 58 270 0.0 4.0 0.00 0.00 0.00 95 1017.6
20260502162016 57 270 1.0 4.0 0.00 0.00 0.00 100 1017.6
20260502161035 55 270 1.0 6.0 0.00 0.00 0.00 100 1017.6
20260502152015 50 269 0.0 0.0 0.00 0.00 0.00 100 1017.5
20260502151015 50 269 0.0 0.0 0.00 0.00 0.00 100 1017.3
20260502123017 46 269 0.0 0.0 0.00 0.00 0.00 100 1016.7
20260502122017 46 269 0.0 0.0 0.00 0.00 0.00 100 1016.5
20260502121017 46 269 0.0 0.0 0.00 0.00 0.00 100 1016.6
20260502115017 46 270 0.0 2.0 0.00 0.00 0.00 100 1016.5
20260502114037 46 269 0.0 0.0 0.00 0.00 0.00 100 1016.4
20260502113017 46 269 0.0 0.0 0.00 0.00 0.00 100 1016.4
20260502112017 46 269 0.0 0.0 0.00 0.00 0.00 100 1016.1
20260502111017 47 269 0.0 0.0 0.00 0.00 0.00 100 1016.3
20260502110037 47 269 0.0 0.0 0.00 0.00 0.00 100 1016.3
20260502105037 47 269 0.0 0.0 0.00 0.00 0.00 100 1016.3
20260502104017 47 269 0.0 0.0 0.00 0.00 0.00 100 1016.3
20260502103037 47 269 0.0 0.0 0.00 0.00 0.00 100 1016.3
20260502102017 47 269 0.0 0.0 0.00 0.00 0.00 100 1016.2
20260502101037 47 269 0.0 0.0 0.00 0.00 0.00 100 1016.2
20260502091017 48 269 0.0 0.0 0.00 0.00 0.00 100 1016.0
20260502071017 50 269 0.0 0.0 0.00 0.00 0.00 100 1016.0
20260502070016 51 269 0.0 0.0 0.00 0.00 0.00 100 1016.0
20260502065037 51 270 0.0 2.0 0.00 0.00 0.00 100 1016.0
20260502064016 52 269 0.0 0.0 0.00 0.00 0.00 100 1016.0
20260502063016 52 270 0.0 2.0 0.00 0.00 0.00 100 1016.0
20260502062016 52 269 0.0 0.0 0.00 0.00 0.00 100 1016.0
20260502061016 53 269 0.0 0.0 0.00 0.00 0.00 100 1016.0
20260502060016 53 269 0.0 0.0 0.00 0.00 0.00 100 1016.0
20260502055016 53 269 0.0 0.0 0.00 0.00 0.00 99 1015.8
20260502054021 54 270 0.0 1.0 0.00 0.00 0.00 98 1015.6
20260502053016 54 270 0.0 2.0 0.00 0.00 0.00 97 1015.6
20260502052016 54 270 0.0 2.0 0.00 0.00 0.00 96 1015.5
20260502051016 54 269 0.0 0.0 0.00 0.00 0.00 95 1015.5
20260502050016 55 269 0.0 0.0 0.00 0.00 0.00 94 1015.5
20260502045036 55 269 0.0 0.0 0.00 0.00 0.00 93 1015.4
20260502044016 56 269 0.0 0.0 0.00 0.00 0.00 93 1015.4
20260502043016 56 270 0.0 2.0 0.00 0.00 0.00 91 1015.4
20260502042016 57 269 0.0 0.0 0.00 0.00 0.00 90 1015.4
20260502041016 57 269 0.0 0.0 0.00 0.00 0.00 88 1015.2
20260502040016 58 270 0.0 3.0 0.00 0.00 0.00 88 1015.2
20260502035056 58 269 0.0 0.0 0.00 0.00 0.00 82 1015.0
20260502034016 58 270 0.0 3.0 0.00 0.00 0.00 87 1014.9
20260502033016 58 269 0.0 0.0 0.00 0.00 0.00 85 1014.9
20260502032018 59 270 0.0 2.0 0.00 0.00 0.00 84 1014.9
20260502031016 59 269 0.0 0.0 0.00 0.00 0.00 83 1014.9
20260502030015 60 270 0.0 3.0 0.00 0.00 0.00 84 1014.9
20260502025056 60 270 0.0 3.0 0.00 0.00 0.00 83 1014.7
20260502024036 61 270 0.0 2.0 0.00 0.00 0.00 83 1014.4
20260502023016 61 270 0.0 1.0 0.00 0.00 0.00 81 1014.4
20260502022035 61 269 0.0 0.0 0.00 0.00 0.00 80 1014.4
20260502021015 61 270 0.0 2.0 0.00 0.00 0.00 79 1014.5
20260502020016 61 269 0.0 0.0 0.00 0.00 0.00 78 1014.5
20260502015016 62 269 0.0 0.0 0.00 0.00 0.00 77 1014.8
20260502014016 62 270 1.0 3.0 0.00 0.00 0.00 74 1014.8
20260502013015 63 270 1.0 4.0 0.00 0.00 0.00 73 1014.8
20260502012015 63 270 2.0 6.0 0.00 0.00 0.00 72 1014.9
20260502011015 64 270 1.0 6.0 0.00 0.00 0.00 72 1014.9
20260502010058 64 270 0.0 4.0 0.00 0.00 0.00 73 1014.9
20260502005016 64 270 0.0 1.0 0.00 0.00 0.00 71 1014.9
20260502004015 64 270 0.0 1.0 0.00 0.00 0.00 72 1015.0
20260502003015 64 270 0.0 5.0 0.00 0.00 0.00 74 1015.0
20260502002015 64 270 1.0 5.0 0.00 0.00 0.00 73 1014.9
20260502001035 65 270 0.0 3.0 0.00 0.00 0.00 73 1015.0
20260502000015 66 270 2.0 8.0 0.00 0.00 0.00 72 1015.1
20260501235016 66 270 1.0 7.0 0.00 0.00 0.00 71 1014.9
20260501234017 66 270 1.0 5.0 0.00 0.00 0.00 73 1015.1
20260501233017 67 270 2.0 7.0 0.00 0.00 0.00 72 1015.1
20260501232015 66 270 0.0 1.0 0.00 0.00 0.00 73 1015.3
20260501231017 67 270 1.0 5.0 0.00 0.00 0.00 69 1015.4
20260501230017 67 270 1.0 4.0 0.00 0.00 0.00 71 1015.4
20260501225017 67 270 0.0 3.0 0.00 0.00 0.00 69 1015.4
20260501224017 68 270 1.0 4.0 0.00 0.00 0.00 70 1015.7
20260501223017 68 270 1.0 5.0 0.00 0.00 0.00 69 1015.7
20260501222057 68 270 1.0 5.0 0.00 0.00 0.00 69 1015.9
20260501221019 68 270 2.0 5.0 0.00 0.00 0.00 72 1016.0
20260501215017 68 270 1.0 4.0 0.00 0.00 0.00 73 1016.1
20260501214017 68 270 1.0 7.0 0.00 0.00 0.00 71 1016.2
20260501213017 69 248 1.0 5.0 0.00 0.00 0.00 70 1016.2
20260501212037 68 248 2.0 6.0 0.00 0.00 0.00 73 1016.1
20260501211017 67 248 2.0 6.0 0.00 0.00 0.00 75 1016.1
20260501210017 67 248 1.0 4.0 0.00 0.00 0.00 74 1016.1
20260501205037 66 248 1.0 6.0 0.00 0.00 0.00 75 1016.2
20260501204017 66 248 1.0 6.0 0.00 0.00 0.00 78 1016.2
20260501203017 66 248 1.0 5.0 0.00 0.00 0.00 74 1016.2
20260501202017 66 248 1.0 5.0 0.00 0.00 0.00 76 1016.2
20260501201017 64 248 1.0 7.0 0.00 0.00 0.00 78 1016.4
20260501200016 64 225 0.0 5.0 0.00 0.00 0.00 77 1016.4
20260501195037 64 225 3.0 7.0 0.00 0.00 0.00 76 1016.5